This demonstration page uses our WeatherBlox Daily Observations layout. Learn more.

39.92423, -83.80882

Hourly Observations for December 23, 2017

Temp ( °F °C ) Dew Point ( °F °C ) Humidity (%) Winds ( mph kmh ) Pressure ( in mb ) Visibility ( mi km ) Precip ( " mm )
12:56 am 00:56 Cloudy with Light Rain 45 7.2 45 7.2 100 100 NNW 5 7 29.92 1013 4 6.43736 0.03 0.762
1:21 am 01:21 Cloudy with Light Rain 45 7 45 7 100 100 NNW 5 7 29.94 1014 5 8.0467 0.01 0.254
1:56 am 01:56 Cloudy with Light Rain 44 6.7 44 6.7 100 100 N 7 11 29.91 1013 7 11.26538 0.05 1.27
2:20 am 02:20 Cloudy with Rain 43 6 43 6 100 100 N 7 11 29.91 1013 8 12.87472 0.08 2.032
2:44 am 02:44 Cloudy with Rain 43 6 43 6 100 100 N 6 9 29.91 1013 8 12.87472 0.13 3.302
2:51 am 02:51 Cloudy with Rain 43 6 43 6 100 100 N 7 11 29.91 1013 9 14.48406 0.14 3.556
2:56 am 02:56 Cloudy with Rain 43 6.1 42 5.6 97 97 N 7 11 29.9 1013 10 16.0934 0.14 3.556
3:16 am 03:16 Cloudy with Rain 43 6 43 6 100 100 N 9 15 29.91 1013 9 14.48406 0.02 0.508
3:56 am 03:56 Cloudy with Light Rain 41 5 40 4.4 96 96 N 10 17 29.89 1012 10 16.0934 0.07 1.778
4:06 am 04:06 Cloudy with Rain 39 4 39 4 100 100 N 12 19 29.91 1013 10 16.0934 0.01 0.254
4:22 am 04:22 Cloudy with Rain 39 4 39 4 100 100 NNW 10 17 29.91 1013 9 14.48406 0.05 1.27
4:30 am 04:30 Cloudy with Rain 39 4 39 4 100 100 NNW 12 19 29.91 1013 9 14.48406 0.07 1.778
4:37 am 04:37 Cloudy with Rain 39 4 39 4 100 100 N 10 17 29.88 1012 10 16.0934 0.08 2.032
4:56 am 04:56 Cloudy with Rain 39 3.9 38 3.3 96 96 N 13 20 29.87 1012 10 16.0934 0.13 3.302
5:56 am 05:56 Cloudy with Rain 37 2.8 36 2.2 96 96 N 14 22 29.88 1012 10 16.0934 0.11 2.794
6:48 am 06:48 Cloudy with Light Rain 36 2 36 2 100 100 N 15 24 29.85 1011 8 12.87472 0.07 1.778
6:56 am 06:56 Cloudy with Light Rain 36 2.2 35 1.7 97 97 N 14 22 29.85 1011 9 14.48406 0.07 1.778
7:56 am 07:56 Cloudy with Light Rain 35 1.7 33 0.6 93 93 N 18 30 29.84 1010 7 11.26538 0.08 2.032
8:56 am 08:56 Cloudy with Light Rain 34 1.1 33 0.6 97 97 N 14 22 29.85 1011 10 16.0934 0.01 0.254
9:56 am 09:56 Cloudy with Light Rain 34 1.1 33 0.6 97 97 N 15 24 29.88 1012 5 8.0467 0 0.0254
10:56 am 10:56 Cloudy with Light Rain 33 0.6 32 0 96 96 NNW 15 24 29.93 1014 5 8.0467 0.02 0.508
11:12 am 11:12 Cloudy with Light Snow 34 1 30 -1 87 87 NNW 13 20 29.97 1015 1.75 2.816345 0 0.0254
11:32 am 11:32 Cloudy with Light Snow 32 0 30 -1 93 93 NNW 10 17 29.97 1015 1 1.60934 0.01 0.254
11:34 am 11:34 Cloudy with Light Snow 32 0 30 -1 93 93 NNW 10 17 29.97 1015 0.75 1.207005 0.01 0.254
11:52 am 11:52 Cloudy with Light Snow 32 0 30 -1 93 93 NNW 13 20 29.97 1015 1 1.60934 0.02 0.508
11:56 am 11:56 Cloudy with Light Snow 32 0 31 -0.6 96 96 NNW 12 19 29.94 1014 1 1.60934 0.02 0.508
12:10 pm 12:10 Cloudy with Light Snow 32 0 30 -1 93 93 NNW 13 20 29.97 1015 0.75 1.207005 0 0.0254
12:15 pm 12:15 Cloudy with Light Snow 32 0 30 -1 93 93 NNW 15 24 29.97 1015 1.25 2.011675 0.01 0.254
12:39 pm 12:39 Cloudy with Light Snow 32 0 30 -1 93 93 N 14 22 29.97 1015 3 4.82802 0.01 0.254
12:56 pm 12:56 Cloudy with Light Wintry Mix 32 0 31 -0.6 96 96 N 12 19 29.93 1014 9 14.48406 0.01 0.254
1:26 pm 13:26 Cloudy with Light Snow 34 1 30 -1 87 87 NNW 10 17 29.97 1015 1.75 2.816345 0 0.0254
1:38 pm 13:38 Cloudy with Light Snow 34 1 30 -1 87 87 NNE 6 9 29.94 1014 1 1.60934 0.01 0.254
1:50 pm 13:50 Cloudy with Light Snow 34 1 32 0 93 93 N 10 17 29.94 1014 2 3.21868 0.01 0.254
1:51 pm 13:51 Cloudy with Light Snow 33 0.6 32 0 96 96 N 9 15 29.91 1013 2.5 4.02335 0.01 0.254
1:58 pm 13:58 Cloudy with Light Snow 34 1 32 0 93 93 N 12 19 29.94 1014 8 12.87472 0 0.0254
2:54 pm 14:54 Cloudy 34 1 30 -1 87 87 NNW 17 28 30.06 1018 10 16.0934 0 0.0254
2:56 pm 14:56 Cloudy 33 0.6 30 -1.1 89 89 NW 12 19 30.02 1017 10 16.0934 0 0.0254
3:53 pm 15:53 Cloudy 34 1 28 -2 81 81 NW 13 20 30.09 1019 10 16.0934 0 0
3:56 pm 15:56 Cloudy 33 0.6 30 -1.1 89 89 NNW 12 19 30.06 1018 10 16.0934 0 0
4:56 pm 16:56 Cloudy 33 0.6 29 -1.7 85 85 NW 8 13 30.11 1020 10 16.0934 0 0
5:56 pm 17:56 Cloudy 33 0.6 27 -2.8 78 78 NW 6 9 30.15 1021 10 16.0934 0 0
6:56 pm 18:56 Cloudy 32 0 29 -1.7 88 88 NNW 3 6 30.16 1022 10 16.0934 0 0
7:56 pm 19:56 Cloudy 32 0 28 -2.2 85 85 W 6 9 30.2 1023 10 16.0934 0 0
8:54 pm 20:54 Partly Cloudy 30 -1 28 -2 93 93 W 6 9 30.24 1024 10 16.0934 0 0
8:56 pm 20:56 Mostly Clear 31 -0.6 28 -2.2 89 89 W 6 9 30.21 1023 10 16.0934 0 0
9:56 pm 21:56 Clear 30 -1.1 27 -2.8 88 88 W 6 9 30.21 1023 10 16.0934 0 0
10:56 pm 22:56 Clear 30 -1.1 27 -2.8 88 88 WNW 6 9 30.21 1023 10 16.0934 0 0
11:56 pm 23:56 Clear 30 -1.1 27 -2.8 88 88 NW 7 11 30.22 1023 10 16.0934 0 0

Powered by AerisWeather